Voltar ao catálogo

CZ-6A R/B

AtivoSSO
NORAD 54236·ROCKET BODY·🇨🇳 China

Lançado Nov 11, 2022 de Taiyuan Satellite Launch Center

Loading…

Próximas Passagens (próximas 24 horas)

TLE

AtualizadoSource: Space-Track

Época: Sep 14, 2026, 10:31 UTC

1 54236U 22151B   26257.43878965  .00000088  00000-0  74526-4 0  9997
2 54236  98.8571 256.9630 0046404  91.6133 269.0353 14.09313435197213

Acompanhe CZ-6A R/B em tempo real com AllMySat

Download on the App Store